Simultaneous Nadir Overpasses (SNOs) Predictions

Prediction of SNOs between NOAA-19 and NPP Satellite Orbit:

Table of predicted SNOs for the next 14.0 days since TLE Epoch: 12/26/2015
Index Date (NOAA-19) Time (NOAA-19) Lat,Lon (NOAA-19) SZA (NOAA-19 ) Date (NPP) Time (NPP) Lat,Lon (NPP) SZA (NPP ) Distance(km) Time Diff (sec)
1 12/29/2015 11:29:39 81.03, -45.85 107.74 12/29/2015 11:30:52 81.04, -45.87 107.70 0.71 73
2 12/29/2015 12:20:45 -81.03, 121.52 72.29 12/29/2015 12:21:37 -81.04, 121.35 72.29 3.04 52
3 12/29/2015 13:11:41 81.03, -71.24 107.72 12/29/2015 13:12:22 81.04, -71.30 107.71 1.36 41
4 12/29/2015 14:02:47 -81.03, 96.13 72.31 12/29/2015 14:03:06 -81.03, 96.29 72.34 2.86 19
5 12/29/2015 14:53:42 81.03, -96.25 107.66 12/29/2015 14:53:51 81.03, -96.36 107.66 1.98 9
6 12/29/2015</
